Tracking 19564 objects as of 20-Mar-2019
HD Live streaming from Space Station
objects crossing your sky now

ERS 15

Track ERS 15 now!
10-day predictions
ERS 15 is classified as:


NORAD ID: 2412
Int'l Code: 1966-077C
Perigee: 3,685.5 km
Apogee: 3,713.4 km
Inclination: 90.2 °
Period: 167.6 minutes
Semi major axis: 10070 km
RCS: 0.3509 m2 (medium)
Launch date: August 19, 1966
Source: United States (US)
Launch site: AIR FORCE WESTERN TEST RANGE (AFWTR)
aabbcc
Your satellite tracking list
Your tracking list is empty




NASA's NSSDC Master Catalog

Two Line Element Set (TLE):
1  2412U 66077C   19077.90359396 +.00000002 +00000-0 +00000-0 0  9995
2  2412 090.2170 249.7017 0013822 193.9923 166.0546 08.59071146163113
Source of the keplerian elements: AFSPC